Regional Weather Roundup
Issued by NWS

Home | Current Version | Previous Version | Graphics & Text | Print | Product List | Glossary On
Versions: 1 2 3 4 5 6 7 8 9 10 11 12 13 14 15 16 17 18 19 20 21 22 23 24 25 26 27 28 29 30 31 32 33 34 35 36 37 38 39 40 41 42 43 44 45 46 47 48 49 50
000
ASUS45 KCYS 221010
RWRWY

WYOMING REGIONAL WEATHER ROUNDUP
NATIONAL WEATHER SERVICE CHEYENNE WY
400 AM MDT SAT APR 22 2017

NOTE:  "FAIR" INDICATES FEW OR NO CLOUDS BELOW 12,000 FEET
WITH NO SIGNIFICANT WEATHER AND/OR OBSTRUCTIONS TO VISIBILITY.

WYZ001-221100-
YELLOWSTONE NATIONAL PARK

CITY           SKY/WX    TMP DP  RH WIND       PRES   REMARKS
LK YELLOWSTONE   N/A     18  16  92 CALM      30.26S
W YELLOWSTONE  NOT AVBL

$$
WYZ002>013-054>058-071-098>099-221100-
NORTHERN WYOMING

CITY           SKY/WX    TMP DP  RH WIND       PRES   REMARKS
JACKSON        FAIR      27  25  93 NE3       30.25S
CODY           MOCLDY    36  35  96 SE3       30.25S
GREYBULL       FAIR      39  35  86 NW8       30.21S WCI  33
WORLAND        CLOUDY    40  40 100 CALM      30.23R
SHERIDAN       CLOUDY    39  37  92 S5        30.25R
BUFFALO        CLOUDY    38  35  89 NW8       30.23S WCI  32
GILLETTE       CLOUDY    41  41 100 N3        30.23R
HULETT         FAIR      37  36  93 S3        30.24S
NEWCASTLE      FAIR      37  36  93 S8        30.24S WCI  31

$$
WYZ014>020-022>026-101>103-221100-
CENTRAL WYOMING

CITY           SKY/WX    TMP DP  RH WIND       PRES   REMARKS
BIG PINEY      FAIR      25  20  81 N8        30.25R WCI  16
PINEDALE       FAIR      23  21  93 CALM      30.26R
DUBOIS         CLOUDY    28  21  74 NW8       30.21S WCI  20
LANDER         CLOUDY    36  33  89 SW7       30.22R WCI  30
RIVERTON       CLOUDY    36  35  96 CALM      30.23R
CASPER         CLOUDY    36  35  96 W10       30.20R WCI  28
DOUGLAS        MOCLDY    36  35  96 S5        30.21R WCI  32

$$
WYZ021-027>030-104>119-221100-
SOUTHERN WYOMING

CITY           SKY/WX    TMP DP  RH WIND       PRES   REMARKS
EVANSTON       FAIR      27  22  81 S6        30.25S WCI  20
KEMMERER         N/A     28  23  80 W5        30.25S WCI  23
FORT BRIDGER   FAIR      29  24  82 W8        30.27F WCI  21
ROCK SPRINGS   FAIR      29  22  75 S6        30.25R WCI  23
DIXON            N/A     31  29  92 E5        30.27S WCI  26
RAWLINS        CLOUDY    33  27  78 W3        30.23R
SARATOGA       CLOUDY    28  28 100 W5        30.24R WCI  23
LARAMIE        MOCLDY    29  27  92 S9        30.19R WCI  20
CHEYENNE       CLOUDY    33  32  96 SW6       30.22R WCI  28
TORRINGTON     CLOUDY    41  38  89 SE6       30.22R
PINE BLUFFS    CLOUDY    36  36 100 SW5       30.25R WCI  32

$$



USA.gov is the U.S. government's official web portal to all federal, state and local government web resources and services.